FW3054 Weather Reports


time (UTC)temp
C
wind
direction
speed
KPH
gust
KPH
rain 1hr
cm
rain 24hr
cm
rain mn
cm
humidity
%
barometer
mb
20260831033517 21 0.0 0.0 0.00 0.00 0.00 89 1023.5
20260831032516 22 0.0 0.0 0.00 0.00 0.00 89 1023.5
20260831031516 22 0.0 0.0 0.00 0.00 0.00 88 1023.6
20260831030557 22 0.0 0.0 0.00 0.00 0.00 88 1023.6
20260831025516 22 0.0 0.0 0.00 0.00 0.00 88 1023.6
20260831024536 22 0.0 0.0 0.00 0.00 0.00 87 1023.7
20260831023517 22 0.0 0.0 0.00 0.00 0.00 87 1023.7
20260831022517 23 0.0 1.6 0.00 0.00 0.00 86 1023.6
20260831021517 23 0.0 1.6 0.00 0.00 0.00 85 1023.6
20260831020516 23 0.0 0.0 0.00 0.00 0.00 84 1023.5
20260831015517 23 0.0 0.0 0.00 0.00 0.00 83 1023.4
20260831014536 24 0.0 1.6 0.00 0.00 0.00 83 1023.4
20260831013516 24 0.0 0.0 0.00 0.00 0.00 82 1023.3
20260831012516 24 0.0 0.0 0.00 0.00 0.00 81 1023.0
20260831011516 24 0.0 0.0 0.00 0.00 0.00 82 1022.8
20260831010536 24 0.0 0.0 0.00 0.00 0.00 82 1022.6
20260831005516 24 0.0 1.6 0.00 0.00 0.00 83 1022.5
20260831004516 24 0.0 3.2 0.00 0.00 0.00 83 1022.4
20260831003536 24 0.0 3.2 0.00 0.00 0.00 82 1022.4
20260831002516 25 0.0 1.6 0.00 0.00 0.00 81 1022.4
20260831001516 25 0.0 1.6 0.00 0.00 0.00 80 1022.5
20260831000516 25 0.0 0.0 0.00 0.00 0.00 79 1022.4
20260830235516 25 0.0 0.0 0.00 0.00 0.00 78 1022.3
20260830234516 25 0.0 0.0 0.00 0.00 0.00 78 1022.2
20260830233516 25 0.0 1.6 0.00 0.00 0.00 78 1022.0
20260830232516 26 0.0 0.0 0.00 0.00 0.00 77 1022.1
20260830231516 26 0.0 1.6 0.00 0.00 0.00 76 1022.1
20260830230516 26 0.0 0.0 0.00 0.00 0.00 75 1022.0
20260830225516 26 0.0 1.6 0.00 0.00 0.00 75 1022.1
20260830224516 27 0.0 1.6 0.00 0.00 0.00 74 1022.3
20260830223516 27 0.0 1.6 0.00 0.00 0.00 70 1022.2
20260830222516 27 0.0 0.0 0.00 0.00 0.00 70 1022.2
20260830221516 27 0.0 0.0 0.00 0.00 0.00 68 1022.3
20260830220516 27 0.0 0.0 0.00 0.00 0.00 68 1022.1
20260830215516 28 0.0 0.0 0.00 0.00 0.00 68 1022.1
20260830214516 28 0.0 0.0 0.00 0.00 0.00 64 1022.2
20260830213536 28 0.0 0.0 0.00 0.00 0.00 59 1022.1
20260830212516 29 0.0 0.0 0.00 0.00 0.00 58 1022.2
20260830211516 29 0.0 0.0 0.00 0.00 0.00 58 1022.3
20260830210516 30 0.0 0.0 0.00 0.00 0.00 55 1022.3
20260830205516 31 0.0 1.6 0.00 0.00 0.00 53 1022.4
20260830204516 31 0.0 3.2 0.00 0.00 0.00 52 1022.6
20260830203516 32 0.0 0.0 0.00 0.00 0.00 55 1022.6
20260830202516 32 0.0 1.6 0.00 0.00 0.00 51 1022.7
20260830201556 32 0.0 1.6 0.00 0.00 0.00 51 1022.6
20260830200516 32 0.0 1.6 0.00 0.00 0.00 54 1022.8
20260830195516 31 0.0 1.6 0.00 0.00 0.00 53 1022.9
20260830194516 32 135 1.6 1.6 0.00 0.00 0.00 53 1023.0
20260830193516 32 0.0 1.6 0.00 0.00 0.00 53 1023.1
20260830192556 32 0.0 1.6 0.00 0.00 0.00 53 1023.4
20260830191536 32 0.0 3.2 0.00 0.00 0.00 53 1023.6
20260830190516 32 0.0 1.6 0.00 0.00 0.00 54 1023.9
20260830185515 31 0.0 1.6 0.00 0.00 0.00 55 1023.8
20260830184515 31 0.0 3.2 0.00 0.00 0.00 56 1024.0
20260830183516 31 135 1.6 1.6 0.00 0.00 0.00 58 1024.2
20260830182516 30 0.0 3.2 0.00 0.00 0.00 59 1024.4
20260830181536 30 0.0 0.0 0.00 0.00 0.00 59 1024.5
20260830180516 30 0.0 0.0 0.00 0.00 0.00 59 1024.7
20260830175535 30 0.0 0.0 0.00 0.00 0.00 62 1024.8
20260830174515 30 0.0 0.0 0.00 0.00 0.00 62 1025.1
20260830173515 30 0.0 0.0 0.00 0.00 0.00 64 1025.0
20260830172536 29 0.0 0.0 0.00 0.00 0.00 65 1025.1
20260830171516 29 0.0 0.0 0.00 0.00 0.00 66 1025.3
20260830170516 28 0.0 0.0 0.00 0.00 0.00 69 1025.4
20260830165535 28 0.0 0.0 0.00 0.00 0.00 70 1025.4
20260830164515 27 0.0 0.0 0.00 0.00 0.00 70 1025.5
20260830163517 27 0.0 0.0 0.00 0.00 0.00 74 1025.4
20260830162536 26 0.0 0.0 0.00 0.00 0.00 76 1025.6
20260830161516 26 0.0 0.0 0.00 0.00 0.00 77 1025.5
20260830160515 25 0.0 1.6 0.00 0.00 0.00 80 1025.6
20260830155536 25 0.0 1.6 0.00 0.00 0.00 81 1025.6
20260830154515 25 0.0 1.6 0.00 0.00 0.00 81 1025.5
20260830153515 25 0.0 1.6 0.00 0.00 0.00 82 1025.6
20260830152515 24 0.0 1.6 0.00 0.00 0.00 84 1025.5
20260830151515 23 0.0 1.6 0.00 0.00 0.00 86 1025.6
20260830150515 23 0.0 1.6 0.00 0.00 0.00 86 1025.5
20260830145515 23 0.0 0.0 0.00 0.00 0.00 89 1025.8
20260830144515 22 0.0 1.6 0.00 0.00 0.00 89 1025.7
20260830143535 22 0.0 1.6 0.00 0.00 0.00 90 1025.7
20260830142515 22 0.0 1.6 0.00 0.00 0.00 90 1025.7
20260830141515 22 0.0 1.6 0.00 0.00 0.00 87 1025.6
20260830140515 21 0.0 0.0 0.00 0.00 0.00 82 1025.6
20260830135515 21 0.0 0.0 0.00 0.00 0.00 80 1025.6
20260830134537 21 0.0 0.0 0.00 0.00 0.00 79 1025.4
20260830133515 21 0.0 0.0 0.00 0.00 0.00 80 1025.4
20260830132517 20 0.0 0.0 0.00 0.00 0.00 79 1025.5
20260830131515 20 0.0 0.0 0.00 0.00 0.00 79 1025.7
20260830130517 20 0.0 0.0 0.00 0.00 0.00 78 1025.4
20260830125517 20 0.0 0.0 0.00 0.00 0.00 78 1025.6
20260830124537 20 0.0 0.0 0.00 0.00 0.00 78 1025.6
20260830123517 20 0.0 0.0 0.00 0.00 0.00 78 1025.4
20260830122517 19 0.0 0.0 0.00 0.00 0.00 78 1025.3
20260830121517 19 0.0 0.0 0.00 0.00 0.00 79 1025.3
20260830120517 19 0.0 0.0 0.00 0.00 0.00 79 1025.1
20260830115537 19 0.0 0.0 0.00 0.00 0.00 81 1025.1
20260830114517 19 0.0 0.0 0.00 0.00 0.00 80 1025.0
20260830113517 19 0.0 0.0 0.00 0.00 0.00 80 1025.0
20260830112517 19 0.0 0.0 0.00 0.00 0.00 80 1024.9
20260830111517 19 0.0 0.0 0.00 0.00 0.00 79 1024.8
20260830110517 19 0.0 0.0 0.00 0.00 0.00 80 1024.6
20260830105517 19 0.0 0.0 0.00 0.00 0.00 80 1024.4
20260830104517 19 0.0 0.0 0.00 0.00 0.00 80 1024.4
20260830103517 19 0.0 0.0 0.00 0.00 0.00 81 1024.4
20260830102517 19 0.0 0.0 0.00 0.00 0.00 81 1024.5
20260830101517 19 0.0 0.0 0.00 0.00 0.00 81 1024.5
20260830100537 19 0.0 0.0 0.00 0.00 0.00 81 1024.6
20260830095517 19 0.0 0.0 0.00 0.00 0.00 82 1024.3
20260830094517 19 0.0 0.0 0.00 0.00 0.00 82 1024.3
20260830093516 19 0.0 0.0 0.00 0.00 0.00 81 1024.2
20260830092517 19 0.0 0.0 0.00 0.00 0.00 81 1024.5
20260830091517 19 0.0 0.0 0.00 0.00 0.00 81 1024.4
20260830090517 19 0.0 0.0 0.00 0.00 0.00 82 1024.5
20260830085537 19 0.0 0.0 0.00 0.00 0.00 83 1024.6
20260830084517 19 0.0 0.0 0.00 0.00 0.00 84 1024.5
20260830083517 19 0.0 0.0 0.00 0.00 0.00 85 1024.6
20260830082517 19 0.0 0.0 0.00 0.00 0.00 86 1024.6
20260830081516 19 0.0 0.0 0.00 0.00 0.00 86 1024.6
20260830080516 19 0.0 0.0 0.00 0.00 0.00 87 1024.5
20260830075556 19 0.0 0.0 0.00 0.00 0.00 87 1024.6
20260830074517 19 0.0 0.0 0.00 0.00 0.00 87 1024.4
20260830073516 20 0.0 0.0 0.00 0.00 0.00 88 1024.5
20260830072517 20 0.0 0.0 0.00 0.00 0.00 88 1024.5
20260830071517 20 0.0 0.0 0.00 0.00 0.00 88 1024.4
20260830070516 20 0.0 0.0 0.00 0.00 0.00 88 1024.4
20260830065517 20 0.0 0.0 0.00 0.00 0.00 89 1024.4
20260830064516 20 0.0 0.0 0.00 0.00 0.00 88 1024.6
20260830063556 20 0.0 0.0 0.00 0.00 0.00 89 1024.8
20260830062536 20 0.0 0.0 0.00 0.00 0.00 89 1024.9
20260830061517 20 0.0 0.0 0.00 0.00 0.00 89 1024.9
20260830060516 20 0.0 0.0 0.00 0.00 0.00 89 1025.1
20260830055516 20 0.0 0.0 0.00 0.00 0.00 90 1025.0
20260830054517 20 0.0 0.0 0.00 0.00 0.00 90 1025.0
20260830053517 20 0.0 0.0 0.00 0.00 0.00 90 1025.1
20260830052516 20 0.0 0.0 0.00 0.00 0.00 90 1024.9
20260830051516 20 0.0 0.0 0.00 0.00 0.00 90 1024.9
20260830050516 20 0.0 0.0 0.00 0.00 0.00 90 1024.8
20260830045516 21 0.0 0.0 0.00 0.00 0.00 90 1024.9
20260830044516 21 0.0 0.0 0.00 0.00 0.00 90 1024.9
20260830043516 21 0.0 0.0 0.00 0.00 0.00 90 1025.1
20260830042516 21 0.0 0.0 0.00 0.00 0.00 90 1025.0
20260830041516 21 0.0 0.0 0.00 0.00 0.00 90 1025.1
20260830040516 21 0.0 0.0 0.00 0.00 0.00 90 1025.2
20260830035517 21 0.0 0.0 0.00 0.00 0.00 90 1025.1
20260830034537 21 0.0 0.0 0.00 0.00 0.00 90 1025.2